Theta_e
313 313 314 314 314 315 315 314 314 314 315 314 315 315 313 313 313 313 312 311 309 309 307 305 304 304 304 304 305 306 308 310 311 314 315 318 319 319 320 320 320 319 319 318
314 314 315 315 315 314 314 314 313 315 315 313 313 313 313 313 312 312 312 310 309 307 305 303 302 301 301 302 302 303 304 305 307 309 312 313 315 316 317 317 317 317 316 315
316 317 316 316 315 315 315 315 315 314 313 312 311 312 313 314 313 310 309 307 306 304 303 301 300 300 299 300 300 300 301 302 303 305 307 308 310 310 310 310 312 313 314 313
318 312 313 313 314 314 314 314 313 313 312 312 310 312 314 314 310 309 307 305 303 302 301 300 299 298 298 298 298 298 298 299 301 302 304 304 305 305 305 305 306 307 310 311
316 312 312 313 313 313 314 311 312 311 312 312 313 313 315 314 311 309 306 305 302 301 300 299 298 298 297 297 296 296 296 297 298 299 300 301 301 302 302 302 303 303 304 305
312 310 311 315 313 312 311 310 310 310 312 316 319 319 317 312 311 308 306 304 303 301 299 299 299 298 297 296 296 295 294 295 295 296 297 297 298 299 299 300 301 301 301 301
315 312 312 314 315 311 310 311 318 321 317 320 318 319 319 311 309 308 306 304 302 300 298 298 297 297 296 295 295 294 294 293 293 294 294 294 295 296 296 296 297 297 299 299
320 318 314 310 314 313 312 315 320 322 322 320 316 318 319 309 307 306 305 302 301 299 298 296 296 296 295 294 293 293 292 291 292 292 292 292 293 293 293 293 294 294 295 296
316 317 309 309 309 310 314 316 313 321 318 322 318 315 311 309 308 306 304 301 299 297 297 296 295 295 294 294 293 292 291 290 289 290 290 290 290 291 290 290 289 288 291 292
317 320 318 311 308 308 309 308 316 316 319 312 314 313 314 312 309 307 303 300 298 297 295 295 294 293 293 292 291 291 290 289 288 289 288 288 287 288 288 287 286 285 286 286
317 318 316 315 313 315 310 311 310 311 314 316 315 312 309 310 308 304 300 299 298 296 295 294 293 292 291 290 289 289 288 287 287 287 287 287 286 286 286 285 285 285 284 284
315 316 315 314 311 310 310 312 312 315 316 312 314 314 305 303 301 301 300 298 296 295 291 291 291 291 290 289 288 288 287 287 286 286 286 286 285 285 286 286 285 284 284 284
313 313 312 309 307 311 313 312 312 312 312 315 317 315 308 302 301 300 302 299 295 294 290 290 290 290 289 289 288 287 287 286 286 286 285 285 284 284 284 284 284 284 283 283
310 313 308 307 306 308 306 307 307 308 312 309 309 308 306 304 303 301 303 300 293 293 291 289 289 289 289 288 288 287 287 286 286 285 285 284 284 284 283 283 283 283 283 282
308 308 307 308 307 305 304 304 306 306 305 305 303 302 303 303 299 295 292 291 292 292 292 289 288 289 289 289 288 288 287 287 286 286 285 284 284 284 283 283 283 282 282 282
303 297 299 295 301 302 303 302 301 301 302 301 301 301 301 295 295 295 294 291 291 290 290 290 288 289 289 289 288 288 288 287 287 286 285 284 283 283 282 282 282 282 281 281
300 297 292 292 299 297 293 297 299 299 299 298 298 298 293 294 292 291 290 291 290 290 290 289 288 288 289 289 288 288 287 287 286 286 284 283 283 282 281 281 281 281 280 280
298 295 294 290 290 291 294 295 294 293 293 292 292 291 290 290 290 290 291 290 289 290 289 289 289 289 289 287 287 286 285 284 283 283 282 282 282 281 281 280 280 280 279 279
296 297 293 290 289 293 294 293 293 293 292 293 293 293 291 290 289 288 290 290 290 289 289 289 289 288 287 286 284 283 282 282 281 281 280 280 280 280 279 279 279 278 278 277
291 293 294 286 289 286 291 290 291 291 289 286 287 287 288 290 287 287 290 290 289 290 290 289 287 286 284 283 282 280 279 279 278 278 277 277 276 276 275 275 274 274 274 275
286 286 291 293 294 291 292 290 290 288 290 290 288 289 289 288 288 288 289 289 290 289 287 285 284 282 282 280 278 277 276 276 275 274 273 272 271 270 269 269 269 269 269 270
289 287 286 285 286 290 291 290 290 291 293 291 291 289 288 288 288 288 287 287 287 285 284 282 280 279 278 276 275 274 273 272 271 270 269 268 266 266 266 266 266 266 266 266
288 289 286 289 288 291 289 290 290 291 290 291 290 289 289 288 288 287 287 287 284 282 280 279 277 276 275 274 272 271 270 269 268 267 265 265 264 264 264 264 264 264 264 265
290 289 288 289 290 290 290 290 289 289 289 289 288 288 288 288 287 287 284 284 282 280 278 276 274 273 272 271 270 269 268 267 266 264 264 264 264 263 263 264 264 264 264 264
290 289 289 289 290 290 290 290 290 290 289 289 288 288 288 287 285 284 282 279 279 277 275 273 271 271 270 269 268 267 266 265 264 263 263 263 263 263 263 263 263 264 265 265
291 290 290 290 290 290 290 289 288 288 288 287 287 286 283 284 282 280 278 276 274 273 271 270 269 268 267 267 266 266 265 264 263 263 263 263 262 262 262 263 263 264 265 267
Wind_Speed
5 3 6 10 11 11 4 8 11 11 10 12 13 11 12 12 13 18 14 8 15 17 19 28 30 29 30 33 29 26 20 11 3 4 9 11 11 12 16 16 17 18 21 25
3 6 11 7 7 8 8 10 11 8 7 8 10 13 17 21 13 7 7 14 15 15 16 20 23 26 30 29 30 29 25 21 14 6 2 2 4 8 11 15 16 16 18 21
10 7 10 8 8 10 11 9 9 7 7 8 8 7 8 7 9 17 18 16 18 16 14 12 19 23 26 31 31 29 27 23 18 13 10 5 3 4 3 4 10 14 17 18
7 3 1 4 7 6 8 7 3 6 5 3 7 5 4 14 14 15 13 13 12 12 11 11 16 22 25 26 28 30 29 29 27 19 15 11 11 10 10 13 10 10 14 18
2 7 6 6 6 2 6 2 3 5 5 5 7 4 5 7 11 10 10 10 8 8 8 9 13 17 22 26 28 27 29 30 25 22 20 19 16 11 9 9 10 5 8 13
9 2 3 5 6 2 5 3 8 8 4 2 1 1 4 3 11 6 8 8 8 7 8 10 16 18 23 24 24 25 25 26 25 24 22 21 18 17 15 15 14 12 9 11
5 8 5 4 2 4 3 4 4 2 1 5 7 3 4 5 5 14 13 9 8 7 7 7 9 15 18 21 22 21 22 24 23 22 24 24 21 17 17 17 18 17 17 13
4 3 1 2 2 2 6 2 3 5 3 3 7 5 5 6 11 13 12 9 8 7 6 7 9 12 14 15 16 17 21 22 22 21 19 18 19 19 19 20 18 17 17 17
2 4 4 4 3 1 2 3 2 2 1 1 5 6 2 9 9 9 9 9 8 7 7 7 12 12 12 13 13 14 16 18 20 18 18 19 19 19 18 18 20 21 19 20
3 4 2 3 2 1 2 1 2 2 3 5 6 4 7 5 11 9 8 8 7 7 6 6 8 8 8 9 9 11 11 11 13 14 14 15 18 20 21 22 23 23 21 22
5 0 2 0 4 4 0 2 2 1 3 4 8 6 7 9 8 10 7 5 4 4 5 6 8 9 9 9 9 8 8 9 11 11 10 12 16 18 18 21 23 24 23 24
5 3 4 8 7 8 5 7 8 7 6 4 11 15 10 11 8 8 4 4 5 4 4 5 8 8 8 6 6 7 7 5 7 10 8 9 11 11 9 11 16 17 21 23
3 2 2 7 3 5 5 1 1 5 1 6 8 4 6 11 10 8 11 6 5 4 5 4 7 5 4 5 8 9 11 11 13 15 18 19 19 22 19 19 19 22 24 25
3 2 5 6 8 9 5 8 8 3 5 9 14 18 22 17 9 5 5 8 6 6 4 3 3 4 7 8 10 12 14 15 17 19 23 26 27 27 29 30 30 29 31 30
1 5 4 10 11 8 5 11 18 13 15 12 24 22 23 17 8 5 5 5 2 1 4 6 4 4 7 10 11 13 15 18 20 23 27 31 33 34 36 36 35 34 33 34
2 3 4 6 5 10 14 21 17 19 19 20 20 23 16 4 4 3 3 4 1 1 2 4 6 10 12 13 13 14 16 18 21 26 31 33 34 35 37 38 37 37 34 34
6 4 2 6 1 4 7 16 19 18 19 19 18 15 1 2 3 4 5 3 4 5 3 5 6 10 10 9 8 10 14 16 19 23 30 34 36 37 34 32 34 32 33 33
5 5 3 4 4 3 10 2 2 5 8 5 5 3 4 3 2 3 3 6 6 4 5 4 6 10 1 3 7 11 13 16 24 27 29 31 32 35 36 34 35 35 33 34
13 7 2 3 6 9 16 7 2 2 8 1 3 7 6 3 5 5 2 3 2 4 5 6 6 2 4 4 6 13 19 18 21 24 27 27 28 31 32 33 35 38 38 39
2 8 6 2 5 8 3 4 5 3 6 7 5 4 3 2 1 5 3 4 6 10 7 3 4 5 5 8 11 14 17 19 21 21 22 25 27 30 32 32 34 36 37 40
3 1 11 13 8 6 3 8 4 4 10 3 7 6 5 4 6 8 8 7 11 1 5 5 7 8 6 10 13 13 15 17 20 25 30 29 27 28 32 34 34 36 38 40
6 6 5 2 2 7 2 3 6 5 3 5 5 7 5 8 8 7 8 7 3 4 5 7 9 8 9 12 14 16 16 19 22 25 27 31 33 32 31 31 34 33 34 35
2 7 4 7 5 3 6 5 6 4 5 6 6 9 10 9 7 8 6 2 4 5 5 5 10 15 14 14 18 21 23 26 26 27 29 29 30 30 30 31 32 32 30 30
5 7 3 3 7 14 17 13 11 10 9 8 8 8 7 9 8 4 3 1 2 4 5 8 12 14 15 17 22 23 27 28 29 29 28 28 28 30 29 28 29 30 30 30
8 4 8 9 9 14 16 14 15 14 15 15 12 9 11 8 5 5 4 4 2 1 5 9 12 12 16 23 24 27 28 28 28 27 27 28 27 29 31 31 31 31 33 33
14 18 11 12 16 13 15 12 9 8 8 8 7 5 4 4 4 3 3 3 2 3 7 11 11 16 22 27 29 30 28 27 27 27 27 28 31 30 31 31 32 34 37 38
Wind_Direction
194 209 209 230 239 260 318 314 302 300 303 289 280 305 314 284 268 293 294 266 90 75 59 46 38 34 35 40 42 40 38 40 90 216 217 218 224 229 228 231 230 231 230 225
135 227 239 279 329 308 292 289 286 277 300 349 321 301 284 282 269 289 43 54 77 67 53 46 44 40 32 33 39 45 45 41 45 30 48 235 230 234 233 229 237 237 240 232
214 257 331 302 293 274 271 265 293 323 340 291 302 276 259 285 67 75 71 69 61 56 49 37 33 39 47 32 31 35 45 50 44 37 33 14 318 346 319 292 253 241 242 239
253 102 176 258 259 259 290 279 354 307 341 257 38 282 331 275 89 77 70 64 58 61 59 45 35 35 34 44 48 43 43 43 40 42 44 36 29 23 5 357 290 261 250 244
213 165 184 223 230 201 232 88 250 241 233 299 249 255 245 200 120 104 87 80 75 66 65 61 47 49 41 42 43 44 49 50 47 46 43 35 28 19 358 350 17 356 293 270
259 52 230 215 225 237 4 300 261 251 218 263 51 311 325 59 145 118 109 94 88 74 62 59 55 43 38 38 41 43 44 45 46 51 49 46 38 13 18 13 1 343 317 299
192 206 237 207 239 130 112 299 307 286 136 208 63 13 236 116 129 149 132 115 93 75 56 42 35 44 42 36 33 33 37 38 39 42 41 41 44 42 28 23 9 357 350 334
240 316 101 112 244 31 184 265 169 267 311 304 8 254 245 129 85 92 102 105 98 81 72 70 56 47 49 47 42 36 31 28 30 33 40 42 42 40 35 33 34 18 357 344
277 217 166 152 70 14 104 208 12 89 15 221 232 279 10 102 105 111 111 92 82 78 69 64 58 51 44 40 39 40 37 31 28 25 27 29 30 36 32 32 28 22 15 3
36 296 24 72 114 257 209 354 41 57 237 242 253 281 264 175 151 118 93 84 78 76 72 79 79 73 61 57 56 55 60 49 34 26 28 23 26 28 26 22 20 19 15 6
103 182 249 268 179 194 255 231 195 154 216 252 273 263 69 54 94 97 88 91 120 138 155 134 115 103 79 59 50 49 48 36 44 25 21 20 24 22 21 12 5 4 4 359
177 189 237 240 301 313 263 269 271 253 258 244 254 258 112 99 100 122 154 189 179 169 110 88 75 60 62 40 26 36 30 37 25 15 22 22 19 13 8 354 348 344 346 341
114 218 265 315 277 45 77 241 222 281 253 237 269 262 136 145 162 176 213 201 190 186 121 83 76 52 36 20 13 4 357 355 352 351 356 351 348 345 340 332 331 328 332 338
59 184 185 224 264 333 297 294 272 166 274 289 271 285 290 293 315 346 197 202 179 186 112 71 37 12 352 353 349 346 341 343 339 341 343 341 339 335 333 330 331 329 328 326
5 247 220 255 272 300 290 275 272 270 259 255 272 280 276 290 317 117 117 96 73 245 203 185 210 280 294 301 313 324 322 327 330 331 332 332 330 329 328 326 326 325 322 319
90 265 33 284 260 263 266 262 267 267 264 264 265 267 284 359 120 172 163 141 130 335 303 234 213 222 234 252 267 284 298 312 320 323 324 323 321 321 320 320 320 317 315 312
168 160 145 255 65 356 301 249 247 254 260 264 268 273 13 271 103 68 49 0 294 305 308 323 288 242 235 246 272 283 288 293 299 301 304 307 310 311 311 310 307 302 303 304
196 149 161 248 56 246 249 79 336 252 260 272 281 164 183 167 7 1 278 251 255 257 259 261 289 297 273 326 307 299 297 305 302 297 295 295 298 299 301 302 299 297 298 297
219 208 243 201 207 283 300 297 306 126 278 179 208 190 189 37 322 277 245 57 323 292 287 286 324 58 18 348 318 312 309 306 300 298 299 299 299 298 297 294 293 293 295 293
223 212 196 186 205 220 232 143 96 108 270 239 175 171 131 63 5 270 319 312 283 280 289 335 23 31 26 335 317 312 308 306 304 304 304 302 299 299 299 298 297 294 292 289
119 316 214 230 245 270 235 140 142 124 267 215 168 178 202 208 213 247 268 252 264 323 75 20 348 351 345 323 318 311 308 306 305 302 302 303 302 299 296 294 292 291 289 287
156 165 215 174 224 280 154 81 171 224 159 180 199 231 244 269 265 260 261 259 135 95 46 358 342 341 328 327 323 320 315 313 309 307 304 303 303 301 298 293 291 289 288 287
257 202 195 174 203 194 204 211 225 261 225 225 227 254 272 269 258 262 260 87 81 79 34 353 334 325 329 328 328 320 319 319 315 310 305 302 300 298 296 294 293 291 288 284
231 234 216 282 246 259 266 256 255 269 263 249 250 248 256 248 248 220 155 90 49 21 10 340 333 327 320 324 323 317 316 317 314 309 307 305 303 301 298 294 291 290 288 286
212 125 231 255 251 255 264 260 263 266 266 269 267 253 250 225 216 173 162 155 177 38 342 324 322 314 312 318 317 320 321 322 313 309 307 306 305 303 300 295 292 289 286 284
228 234 238 250 252 250 264 268 246 246 240 243 257 252 224 200 175 126 135 119 86 25 313 314 312 316 316 318 316 321 326 325 315 308 309 308 303 300 298 297 296 294 294 295